Miscellaneous Local Product
Issued by NWS North Platte, NE

Home | Current Version | Previous Version | Text Only | Print | Product List | Glossary On
Versions: 1 2 3 4 5 6 7 8 9 10 11 12 13 14 15 16 17 18 19 20 21 22 23 24 25 26 27 28 29 30 31 32 33 34 35 36 37 38 39 40 41 42 43 44 45 46 47 48 49 50
968
AXUS43 KLBF 201710
MISLBF


WESTERN AND NORTH CENTRAL NEBRASKA HOURLY WEATHER ROUNDUP
NATIONAL WEATHER SERVICE NORTH PLATTE NE
1200 PM CDT FRI APR 20 2018

NOTE: "FAIR" INDICATES FEW OR NO CLOUDS BELOW 12,000 FEET WITH NO
SIGNIFICANT WEATHER AND/OR OBSTRUCTIONS TO VISIBILITY.

NOTE: STATIONS NOT REPORTING VARIABLES SUCH AS SKY/WEATHER OR
PRESSURE ARE PROVIDED BY RAWS AND APRS NETWORKS AND ARE NOT UNDER
NATIONAL WEATHER SERVICE QUALITY CONTROL.

...OBSERVATIONS IN AND NEAR THE EASTERN PANHANDLE OF NEBRASKA...

CITY           SKY/WX    TMP DP  RH WIND       PRES   REMARKS
PINE RIDGE     CLOUDY    49  30  48 SE16G26   30.15R
GORDON         LGT RAIN  44  31  59 S15       30.16R
CHADRON        CLOUDY    49  32  52 S14G24    30.12R
ALLIANCE       LGT RAIN  39  37  92 S22G30    30.12R WCI  29
SIDNEY         SNOW      33  32  96 SE21G28   30.10R VSB 1/2 WCI  21
CRESCENT LAKE    N/A     37  34  90 SE12G23     N/A  WCI  29
$$

...OBSERVATIONS IN NORTHERN NEBRASKA AND FAR SOUTHERN SOUTH DAKOTA...

CITY           SKY/WX    TMP DP  RH WIND       PRES   REMARKS
WINNER         FAIR      46  32  58 SE12      30.29S
VALENTINE      CLOUDY    49  30  48 S16       30.24S
AINSWORTH      CLOUDY    47  32  56 S16       30.26S
O`NEILL        CLOUDY    51  35  53 S16       30.33S
THEDFORD       CLOUDY    48  31  52 SE16G25   30.24S
BROKEN BOW     CLOUDY    46  32  58 SE16      30.26F
ORD            CLOUDY    48  33  56 SE13G24   30.29F
ALBION         CLOUDY    52  33  49 S14G21    30.34F
VALENTINE NWR    N/A     45  29  54 SE14G21     N/A
HALSEY           N/A     47  28  47 SE13G21     N/A
BUTTE            N/A     45  36  70 SE12        N/A
CHAMBERS         N/A     53  35  50 E6          N/A
EWING            N/A     50  36  58 S8G15       N/A
$$

...OBSERVATIONS IN SOUTHWEST NEBRASKA AND FAR NORTHEAST COLORADO...

CITY           SKY/WX    TMP DP  RH WIND       PRES   REMARKS
WRAY           RAIN      41  34  75 SE12      30.12R
HOLYOKE        LGT RAIN  43  34  70 SE15      30.13S
IMPERIAL       LGT RAIN  42  33  70 SE18G30   30.15R
OGALLALA       CLOUDY    46  30  54 SE20      30.18R
NORTH PLATTE   CLOUDY    46  30  53 S13       30.22S
MCCOOK         CLOUDY    46  31  55 SE16      30.21F
LEXINGTON      CLOUDY    49  32  51 SE16      30.26S
STAPLETON        N/A     46  32  58 S3G12       N/A
GOTHENBURG       N/A     45  29  53 SE12        N/A
CALLAWAY         N/A     44  33  66 S23         N/A
$$

...OBSERVATIONS IN CENTRAL LINCOLN COUNTY AREA...

CITY           SKY/WX    TMP DP  RH WIND       PRES   REMARKS
N.P. AIRPORT   CLOUDY    46  30  53 S13       30.22S
N.P. DOWNTOWN    N/A     45  31  57 S3          N/A
N.P. HILLCREST   N/A     45  31  58 SE15G24     N/A
$$

...OBSERVATIONS ACROSS THE ROCKIES AND WESTERN HIGH PLAINS...

CITY           SKY/WX    TMP DP  RH WIND       PRES   REMARKS
RAPID CITY     PTSUNNY   52  31  44 S15G24    30.14F
SCOTTSBLUFF    CLOUDY    44  33  65 SE23G31   30.08R
CHEYENNE       PTSUNNY   47  28  47 SE15G26   29.97F
DENVER         PTSUNNY   56  28  34 SE23G35   29.90F
BERTHOUD PASS  CLOUDY    25  14  63 SE22G32   30.00R WCI  10
MONARCH PASS   CLOUDY    23  21  93 E9G21     30.05S WCI  13
ASPEN          FLURRIES  35  32  88 N3        29.87F
STEAMBOAT      CLOUDY    36  35  95 CALM      29.92S
LARAMIE        CLOUDY    39  26  59 NE8       29.93R WCI  33
CASPER         CLOUDY    40  28  62 NE10      30.02R WCI  33
$$

...OBSERVATIONS ACROSS THE NORTHERN PLAINS...

CITY           SKY/WX    TMP DP  RH WIND       PRES   REMARKS
BISMARCK       MOSUNNY   53  30  41 SE15      30.30S
FARGO          FAIR      51  28  41 S10       30.42F
PIERRE         CLOUDY    46  34  62 SE14      30.28F
SIOUX FALLS    CLOUDY    43  31  62 E8        30.41F
$$

...OBSERVATIONS ACROSS THE CENTRAL AND SOUTHERN PLAINS...

CITY           SKY/WX    TMP DP  RH WIND       PRES   REMARKS
OMAHA          PTSUNNY   55  30  38 SE15      30.41F
GRAND ISLAND   CLOUDY    50  32  50 SE18      30.32F
KANSAS CITY    CLOUDY    57  31  37 SE18      30.40F
WICHITA        CLOUDY    59  33  37 SE18      30.30F
DODGE CITY     CLOUDY    53  31  42 S24G35    30.18F
OKLAHOMA CITY  CLOUDY    58  35  42 SE20      30.27F
DALLAS         PTSUNNY   61  33  35 E14       30.28F
AMARILLO       CLOUDY    52  31  44 SE30G39   30.06F
$$




USA.gov is the U.S. government's official web portal to all federal, state and local government web resources and services.